This demonstration page uses our WeatherBlox Daily Observations layout. Learn more.

Left ArrowRight Arrow

Hourly Observations for July 30, 2022

Temp ( °F °C ) Dew Point ( °F °C ) Humidity (%) Winds ( mph kmh ) Pressure ( in mb ) Visibility ( mi km ) Precip ( " mm )
12:59 am 00:59 Mostly Cloudy 77 25 74 23.3 90 90 SSW 7 11 29.98 1015 10 16 0.00 0.00
1:59 am 01:59 Mostly Cloudy 77 25 75 23.9 94 94 WSW 5 7 29.99 1016 10 16 0.00 0.00
2:59 am 02:59 Mostly Cloudy 77 25 75 23.9 94 94 SW 7 11 30.00 1016 10 16 0.00 0.00
3:59 am 03:59 Mostly Cloudy 77 25 75 23.9 94 94 WSW 6 9 30.01 1016 10 16 0.00 0.00
4:59 am 04:59 Mostly Cloudy 77 25 75 23.9 94 94 WNW 8 13 30.03 1017 10 16 0.00 0.00
5:59 am 05:59 Cloudy 77 25 75 23.9 94 94 VRB 5 7 30.04 1017 10 16 0.00 0.00
6:59 am 06:59 Mostly Cloudy 77 25 75 23.9 94 94 NNW 6 9 30.06 1018 9 14 0.00 0.00
7:59 am 07:59 Mostly Cloudy 79 26.1 74 23.3 85 85 N 7 11 30.08 1019 10 16 0.00 0.00
8:59 am 08:59 Mostly Cloudy 81 27.2 73 22.8 77 77 N 10 17 30.10 1019 10 16 0.00 0.00
9:59 am 09:59 Partly Cloudy 81 27.2 71 21.7 72 72 NNE 12 19 30.10 1019 10 16 0.00 0.00
10:59 am 10:59 Mostly Sunny 82 27.8 70 21.1 67 67 N 14 22 30.12 1020 10 16 0.00 0.00
11:59 am 11:59 Partly Cloudy 82 27.8 71 21.7 69 69 NNE 12 19 30.14 1021 10 16 0.00 0.00
12:59 pm 12:59 Partly Cloudy 84 28.9 67 19.4 57 57 NNE 13 20 30.14 1021 10 16 0.00 0.00
1:59 pm 13:59 Partly Cloudy 84 28.9 65 18.3 53 53 NNE 15 24 30.15 1021 10 16 0.00 0.00
2:59 pm 14:59 Partly Cloudy 86 30 66 18.9 51 51 NE 10 17 30.15 1021 10 16 0.00 0.00
3:59 pm 15:59 Partly Cloudy 86 30 66 18.9 51 51 NE 8 13 30.14 1021 10 16 0.00 0.00
4:06 pm 16:06 Mostly Sunny N/A N/A N/A ENE 9 15 N/A 10 16 0.00 0.00
4:59 pm 16:59 Sunny N/A N/A N/A NNE 8 13 30.13 1020 10 16 0.00 0.00
5:59 pm 17:59 Partly Cloudy 84 28.9 62 16.7 48 48 E 7 11 30.14 1021 10 16 0.00 0.00
6:59 pm 18:59 Partly Cloudy 83 28.3 63 17.2 51 51 E 7 11 30.14 1021 10 16 0.00 0.00
7:59 pm 19:59 Partly Cloudy 81 27.2 64 17.8 57 57 E 5 7 30.16 1021 10 16 0.00 0.00
8:59 pm 20:59 Partly Cloudy 75 23.9 64 17.8 69 69 ESE 6 9 30.16 1021 10 16 0.00 0.00
9:59 pm 21:59 Partly Cloudy 79 26.1 63 17.2 58 58 SSE 5 7 30.18 1022 10 16 0.00 0.00
10:59 pm 22:59 Partly Cloudy 74 23.3 64 17.8 71 71 SSE 3 6 30.19 1022 10 16 0.00 0.00
11:59 pm 23:59 Partly Cloudy 74 23.3 66 18.9 76 76 S 3 6 30.20 1023 10 16 0.00 0.00

Powered by AerisWeather